Flight Information

DEPARTURE
JACKSON, WY
Elevation:
6450
Runways:
1/19 - 6300x150 - ASPH-G
ATIS:
120.625
Ground:
124.55
Tower:
JACKSON TOWER 118.075
DESTINATION
,
Elevation:
TPA:
1000 (est.)


6291.1 NM75° True-15° Var60° HDG

Flight Plan:
(click to file on line)

1. Type
2. Aircraft Identification
3. Aircraft Type / Special Equipment
4. True Airspeed
kts
5. Departure Airport
(ICAO code)
6. Arriving Airport
(ICAO code)
7. Cruising Altitude
ft
8. Alternate Airport
(ICAO code)
9. Route of Flight
10. Remarks


00:00:00 Departure ATIS: Destination ATIS:

Clearance Limit:
Route:
Altitude: Expect in minutes
Frequency:
Transponder: (7500 Hijack / 7600 Lost Comms / 7700 Emergency)


KJAC 100356Z AUTO 24007KT 10SM FEW038 M12/M15 A3006 RMK AO2 SNE03 SLP283 P0000 T11171150
Time: 2022-12-10T03:56:00Z
1670646264
Winds: 240 @ 7 kts
Visibility: 10.0 sm
Clouds (AGL): FEW 3800
Temperature: -11.7 C
Dew Point: -15.0 C
Pressure: 30.059055 in Hgbr


Notes:

Data extracted from FAA Digital Chart Supplement. Effective: 0901Z Thursday, 27 JAN 2022 to 0900z Thursday, 24 MAR 2022
Current ATIS data is provided courtisy of PilotEdge.